www.pogodaiklimat.ru

Погода и климат >> Архив погоды >> Китай >> Хунань >> Линлин


ПОГОДА в Линлине

  • Прогноз погоды в Линлине
  • Монитор погоды в Линлине

АРХИВ ПОГОДЫ в Линлине

Время (UTC), дата Ветер
(напр.,м/с)
 
Видим.   Явления Облачность Т
(С)
Тd
(С)
f
(%)
Тe
(С)
Тes
(С)
Комфортность P
(гПа)
Po
(гПа)
Тmin
(С)
Tmax
(С)
R
(мм)
R24
(мм)
S
(см)
00 13.09 Ю 2 7000 м дымка ясно +27.4 +23.6 80 +37 +40 очень
душно
1009.7 990.2
03 13.09 СЗ 2 11 км 1/1
[]
+33.8 +23.8 56 +45 +59 опасность
перегрева
1009.0 989.6
06 13.09 СЗ 2 17 км 3/3 600 м
[]
+37.8 +21.9 40 +46 +57 опасность
перегрева
1006.3 987.0 +26.0
09 13.09 В 3 14 км 5/5 600 м
[]
+36.5 +20.7 40 +43 +44 опасность
перегрева
1005.3 986.2
12 13.09 ЮВ 2 8000 м ясно +33.2 +22.9 55 +43 +43 опасность
перегрева
1007.1 987.6
15 13.09 Ю 1 9000 м н/о +29.9 +23.8 70 +41 +41 опасность
перегрева
1008.6 989.0
18 13.09 Ю 1 8000 м н/о +28.2 +24.0 78 +39 +39 очень
душно
1008.2 988.9 +38.7
21 13.09 ЮЗ 1 7000 м н/о +26.7 +24.4 87 +37 +37 очень
душно
1008.7 988.9
00 14.09 С 2 6000 м дымка ясно +27.8 +24.6 83 +39 +42 очень
душно
1010.6 991.1
03 14.09 С 4 7000 м 8/8 600 м
[]
+32.4 +23.6 60 +44 +46 опасность
перегрева
1010.6 991.1
06 14.09 С 3 8000 м 9/9 600 м
[]
+34.2 +23.9 55 +46 +47 опасность
перегрева
1008.2 988.8 +26.3
09 14.09 С 4 10 км 3/3 600 м
[]
+34.4 +22.8 51 +44 +46 опасность
перегрева
1006.9 987.6
12 14.09 СВ 4 8000 м ясно +31.1 +22.7 61 +41 +41 опасность
перегрева
1009.1 989.6
15 14.09 СВ 6 8000 м н/о +28.4 +21.7 67 +36 +36 очень
душно
1010.6 990.9
18 14.09 С 7 7000 м н/о +25.6 +20.8 75 +32 +32 очень
душно
1011.0 991.4 +35.1
21 14.09 СЗ 1 1400 м дождь н/о +22.5 +22.5 100 +30 +30 очень
душно
1011.1 991.0
00 15.09 С 2 н/о дымка ?/? +23.9 +23.9 100 +33 +33 очень
душно
1012.3 992.6 31
03 15.09 С 2 н/о дымка 9/9 1500 м
[]
+25.6 +24.0 91 +35 +37 очень
душно
1012.6 992.6
06 15.09 В 1 6000 м дымка 9/9 1500 м
[]
+29.4 +22.1 65 +38 +40 очень
душно
1009.9 990.2 +22.4
09 15.09 В 1 7000 м мгла 3/3 2000 м
[]
+30.4 +22.6 63 +40 +42 очень
душно
1008.1 988.5
12 15.09 В 2 7000 м дымка 3/3 2000 м
[]
+28.8 +22.8 70 +38 +38 очень
душно
1009.5 989.7
15 15.09 В 2 н/о дымка н/о +26.9 +24.6 87 +38 +38 очень
душно
1010.9 991.1
18 15.09 СВ 3 7000 м дымка ?/? +26.6 +21.8 75 +34 +34 очень
душно
1010.6 990.9 +30.9
21 15.09 СВ 3 7000 м дымка н/о +25.3 +21.2 78 +32 +32 очень
душно
1010.9 991.0
00 16.09 СВ 3 6000 м дымка 10/10 2000 м
[]
+25.5 +21.4 78 +32 +32 очень
душно
1012.6 992.8
03 16.09 СВ 3 6000 м дымка 9/9 2000 м
[]
+26.8 +22.0 75 +35 +36 очень
душно
1012.9 993.0
06 16.09 С 2 н/о дымка 9/9 2000 м
[]
+28.6 +21.6 66 +37 +38 очень
душно
1010.5 990.8 +25.1
09 16.09 С 4 6000 м дымка ясно +29.4 +21.9 64 +38 +40 очень
душно
1008.8 989.2
12 16.09 СВ 3 6000 м 4/4 2000 м
[]
+27.4 +21.4 70 +35 +35 очень
душно
1009.6 989.9
15 16.09 СВ 4 6000 м дымка н/о +25.5 +21.0 76 +32 +32 очень
душно
1011.9 992.0
18 16.09 С 6 6000 м дымка ?/? +24.2 +19.9 77 +30 +30 очень
душно
1012.1 992.3 +30.3
21 16.09 С 4 7000 м дымка н/о +23.4 +19.3 78 +30 +30 очень
душно
1012.8 992.7
00 17.09 С 4 7000 м дымка 10/10 1500 м
[]
+23.6 +19.3 77 +29 +29 душно 1014.5 994.6
03 17.09 С 4 6000 м дымка 10/10 2000 м
[]
+25.3 +19.7 71 +31 +31 очень
душно
1015.5 995.5
06 17.09 В 1 7000 м 6/6
[]
+29.2 +20.4 59 +36 +43 очень
душно
1012.5 992.7 +23.3
09 17.09 В 3 8000 м ясно +30.1 +20.9 58 +37 +40 очень
душно
1011.2 991.6
12 17.09 В 2 7000 м дымка 3/3
[]
+27.9 +21.0 66 +35 +35 очень
душно
1013.2 993.3
15 17.09 СВ 4 6000 м дымка н/о +26.5 +21.0 72 +33 +33 очень
душно
1015.1 995.2
18 17.09 СВ 5 н/о дымка ?/? +24.2 +19.9 77 +30 +30 очень
душно
1015.5 995.7 +31.3
21 17.09 С 4 н/о дымка н/о +23.0 +19.2 79 +29 +29 очень
душно
1016.3 996.1
00 18.09 СВ 5 н/о дымка 10/10 1500 м
[]
+22.7 +18.9 79 +29 +29 очень
душно
1018.4 998.4
03 18.09 СВ 3 н/о дымка 10/10 1500 м
[]
+22.2 +19.4 84 +28 +28 душно 1019.4 999.1
06 18.09 С 6 6000 м дымка {дождь} 10/10 1500 м
[]
+23.1 +17.8 72 +29 +29 очень
душно
1018.0 997.9 +21.3 0.0
09 18.09 С 6 8000 м 10/10 1500 м
[]
+23.4 +17.4 69 +29 +29 душно 1017.7 997.5
12 18.09 СВ 3 7000 м 10/10 1500 м
[]
+22.5 +17.4 73 +27 +27 душно 1019.3 999.1
15 18.09 В 4 9000 м н/о +21.9 +17.5 76 +26 +26 душно 1019.9 999.6
18 18.09 СВ 4 9000 м н/о +21.5 +17.3 77 +26 +26 душно 1018.9 998.7 +24.2
21 18.09 В 3 7000 м н/о +21.1 +17.5 80 +25 +25 комфорт 1019.0 998.6
00 19.09 В 2 2800 м слаб. дождь 10/10 1500 м
[]
+19.8 +19.8 100 +24 +24 комфорт 1020.4 1000.1 0.0
03 19.09 СВ 4 8000 м 3/3 600 м
[]
+23.9 +18.1 70 +28 +35 душно 1019.2 999.0
06 19.09 СЗ 2 10 км 3/3 600 м
[]
+27.3 +16.9 53 +31 +42 душно 1015.9 995.9 +19.7
09 19.09 С 4 11 км 1/1 600 м
[]
+28.3 +15.2 45 +31 +33 душно 1014.4 994.6
12 19.09 штиль 0 8000 м ясно +25.7 +17.6 61 +30 +30 душно 1015.3 995.2
15 19.09 В 1 6000 м дымка н/о +23.1 +19.7 81 +30 +30 очень
душно
1016.1 995.9
18 19.09 ЮЗ 1 6000 м дымка ?/? +21.3 +18.1 82 +26 +26 душно 1015.4 995.4 +28.9
21 19.09 ЮЗ 1 6000 м дымка н/о +19.9 +19.1 95 +24 +24 комфорт 1014.8 994.4

 

Местоположение метеостанции Линлин (Хунань, Китай): широта 26.23 долгота 111.61 высота над уровнем моря 174 м.

В архиве по умолчанию представлена погода в Линлине за последнюю неделю. Архивные данные за месяц целиком и за предыдущие месяцы, начиная с января 2011 года, Вы можете получить, выбрав интересующий диапазон дат из раскрывающегося списка и нажав кнопку "Ввод!".


*Определитесь, кто Вы:
робот инопланетянин человек

Внимание! Время в таблицах - всемирное. Для получения местного времени необходимо прибавить поправку, которая равна 8 ч.

Смотрите также архив погоды в соседних городах и на ближайших метеорологических станциях:

Погода в Шаояне (Хунань, Китай) (112 км)
Погода в Угугане (Хунань, Китай) (112 км)
Погода в Чэньчжоу (Хунань, Китай) (150 км)
Погода в Намвьете (Хунань, Китай) (161 км)
Погода в Гуйлине (Гуанси-Чжуанский автономный район, Китай) (165 км)
Погода в Лиан Сиань (Гуандун, Китай) (179 км)
Погода в Тундао (Хунань, Китай) (183 км)
Погода в Чжицзяне (Хунань, Китай) (235 км)
Погода в Мэншане (Гуанси-Чжуанский автономный район, Китай) (251 км)
Погода в Шаогуане (Гуандун, Китай) (254 км)

Пояснения к столбцам:

Ветер - указаны скорость ветра в м/с - средняя за 10 мин, порывы в срок и между сроками (в фигурных скобках) и направление, откуда дует ветер: С - северный, СВ - северо-восточный, В - восточный, ЮВ - юго-восточный, Ю - южный, ЮЗ - юго-западный, З - западный, СЗ - северо-западный.
Видимость - горизонтальная дальность видимости в метрах или километрах. При видимости от 1 до 10 км при отсутствии осадков обычно наблюдается дымка, при ухудшении видимости до 1 км и менее - туман. В сухую погоду видимость может ухудшаться дымом, пылью или мглою.
Явления - указаны атмосферные явления, наблюдавшиеся в срок или в последний час перед сроком; фигурными скобками обозначены явления, наблюдавшиеся между сроками (за 1-3 часа до срока); квадратными скобками обозначены град или гололедные отложения с указанием их диаметра в мм.
Облачность - указаны через наклонную черту общая и нижняя облачность в баллах и высота нижней границы облаков в метрах; квадратными скобками обозначены формы облаков: Ci - перистые, Cs - перисто-слоистые, Cc - перисто-кучевые, Ac - высококучевые, As - высокослоистые, Sc - слоисто-кучевые, Ns - слоисто-дождевые, Cu - кучевые, Cb - кучево-дождевые. Подробнее классификацию облаков см. в Атласе облаков (PDF).
T - Температура воздуха - температура, измеренная на высоте 2 м над землей.
Td - Температура точки росы - температура, при понижении до которой содержащийся в воздухе водяной пар достигнет насыщения.
f - Относительная влажность воздуха - влажноcть воздуха, измеренная на высоте 2 м над землей.
Te - Эффективная температура - температура, которую ощущает одетый по сезону человек в тени. Характеристика душности погоды. При расчете учитывается влияние влажности воздуха и скорости ветра на теплоощущения человека.
Tes - Эффективная температура на солнце - температура, которую ощущает человек, с поправкой на солнечный нагрев. Характеристика знойности погоды. Зависит от высоты солнца над горизонтом, облачности и скорости ветра. Ночью, в пасмурную погоду, а также при ветре 12 м/с и более поправка равна нулю.
P - Атмосферное давление - приведенное к уровню моря атмосферное давление.
Po - Атмосферное давление - измеренное на уровне метеостанции атмосферное давление.
Tmin - Минимальная температура - минимум температуры воздуха на высоте 2 м над землей.
Tmax - Максимальная температура - максимум температуры воздуха на высоте 2 м над землей.
R - Количество осадков - Количество выпавших осадков за период времени, мм. При наведении курсора мыши на число - период времени, за который выпало указанное количество осадков.
R24 - Количество осадков - Количество выпавших осадков за 24 часа, мм.
S - Снежный покров - Высота снежного покрова, см. При наведении курсора мыши на число - состояние снежного покрова и степень покрытия местности в баллах.